#timestamp,LO_Frequency,Hit,StdDev 
1541048415.5,286046996.7,N
1541048435.3,286046996.9,N
1541048455.1,286046996.1,N
1541048475.9,286046993.8,Y
1541048495.7,286046997.7,P
1541048515.6,286046993.7,P
1541048535.4,286046994.0,P
1541048555.2,286046992.2,Y
1541048575.1,286046997.9,P
1541048576.0,286046997.9,N
1541048595.8,286047011.9,P
1541048615.6,286046996.2,N
1541048635.5,286046995.9,N
1541048655.3,286046995.3,N
1541048675.2,286046996.1,N
1541048695.9,286046994.5,N
1541048715.7,286046994.1,N
1541048735.6,286046992.3,N
1541048755.4,286046991.9,N
1541048775.2,286046992.4,N
1541048795.1,286046991.9,N
1541048796.0,286046991.9,N
1541048815.8,286046991.4,N
1541048835.7,286046989.4,N
1541048855.5,286046987.1,N
1541048875.3,286046985.8,N
1541048895.2,286046984.5,N
1541048915.0,286046984.8,N
1541048915.9,286046984.8,N
1541048935.7,286046984.5,N
1541048955.6,286046983.3,N
1541048975.4,286046981.2,Y
1541048995.3,286046987.6,P
1541049015.1,286046987.8,P
1541049016.0,286046987.8,P
1541049035.8,286046989.8,Y
1541049055.7,286047000.3,P
1541049075.5,286047000.6,N
1541049095.4,286047001.5,N
1541049115.2,286047002.8,N
1541049135.0,286047002.8,N
1541049135.9,286047002.8,N
1541049155.8,286046998.3,N
1541049175.6,286046998.5,N
1541049195.4,286046998.7,N
1541049215.3,286046997.0,N
1541049235.1,286046994.9,N
1541049255.9,286046998.0,N
1541049275.7,286046995.4,N
1541049295.5,286046996.2,N
1541049315.4,286046992.4,N
1541049335.2,286046992.2,N
1541049355.0,286046990.1,N
1541049355.9,286046990.1,N
1541049375.8,286046990.6,N
1541049395.6,286046988.8,N
1541049415.5,286046989.0,N
1541049435.3,286046989.9,N
1541049455.1,286046991.6,N
1541049475.9,286046988.5,N
1541049495.7,286046989.2,N
1541049515.5,286046989.1,N
1541049535.4,286046989.7,N
1541049555.2,286046988.7,N
1541049575.0,286046989.6,N
1541049576.0,286046989.6,N
1541049595.8,286046988.1,N
1541049615.6,286046987.5,N
1541049635.5,286046990.0,N
1541049655.3,286046987.0,N
1541049675.1,286046988.1,N
1541049695.9,286046986.1,Y
1541049715.7,286046993.5,P
1541049735.6,286046996.2,P
1541049755.4,286046993.4,P
1541049775.2,286046994.0,Y
1541049795.1,286047000.2,P
1541049796.0,286047000.2,N
1541049815.8,286047000.2,N
1541049835.6,286047002.4,N
1541049855.5,286047001.6,N
1541049875.3,286046999.7,N
1541049895.2,286047000.3,N
1541049915.9,286047000.4,N
1541049935.7,286047002.7,N
1541049955.6,286047003.4,N
1541049975.4,286047005.8,N
1541049995.2,286047005.6,N
1541050015.1,286047006.0,N
1541050016.0,286047006.0,N
1541050035.8,286047005.2,N
1541050055.7,286047007.3,N
1541050075.5,286047010.3,Y
1541050095.3,286047009.2,P
1541050115.2,286047006.3,N
1541050135.0,286047006.1,N
1541050135.9,286047006.1,N
1541050155.7,286047008.2,Y
1541050175.6,286047003.8,P
1541050195.4,286047006.9,P
1541050215.3,286047009.8,P
1541050235.1,286047012.8,Y
1541050255.8,286047008.6,P
1541050275.7,286047010.0,P
1541050295.5,286047011.3,P
1541050315.4,286047013.4,Y
1541050335.2,286047004.8,P
1541050355.0,286047009.1,P
1541050355.9,286047009.1,P
1541050375.8,286047010.5,Y
1541050395.6,286047005.5,P
1541050415.4,286047005.4,P
1541050435.3,286047008.9,P
1541050455.1,286047008.9,Y
1541050475.9,286047002.0,P
1541050495.7,286047003.5,N
1541050515.5,286047001.8,N
1541050535.4,286047005.4,N
1541050555.2,286047006.2,Y
1541050575.1,286047005.7,P
1541050576.0,286047005.7,P
1541050595.8,286047005.8,P
1541050615.6,286047005.9,Y
1541050635.5,286046998.3,P
1541050655.3,286047000.8,N
1541050675.1,286046999.7,N
1541050695.9,286047001.3,N
1541050715.7,286047001.7,N
1541050735.6,286047002.0,N
1541050755.4,286047003.7,N
1541050775.2,286047003.2,N
1541050795.1,286047003.6,N
1541050796.0,286047003.6,N
1541050815.8,286047005.4,N
1541050835.6,286047006.3,Y
1541050855.5,286047006.6,P
1541050875.3,286047009.0,P
1541050895.2,286047010.2,P
1541050915.9,286047012.7,Y
1541050935.7,286047010.4,P
1541050955.6,286047011.6,P
1541050975.4,286047011.4,P
1541050995.3,286047013.2,Y
1541051015.1,286047004.3,P
1541051016.0,286047004.3,N
1541051035.8,286047002.8,N
1541051055.7,286046999.7,N
1541051075.5,286047000.1,N
1541051095.3,286047000.4,N
1541051115.2,286047002.2,N
1541051135.0,286047002.2,N
1541051135.9,286047002.2,N
1541051155.8,286047005.9,N
1541051175.6,286047004.3,N
1541051195.4,286047001.6,N
1541051215.3,286047002.5,N
1541051235.1,286047001.8,N
1541051255.8,286047001.9,N
1541051275.7,286047002.8,N
1541051295.5,286046999.0,N
1541051315.4,286046999.4,N
1541051335.2,286046999.2,N
1541051355.0,286046999.2,N
1541051355.9,286046999.2,N
1541051375.8,286046995.7,N
1541051395.6,286046996.4,N
1541051415.4,286046993.6,N
1541051435.3,286046995.8,N
1541051455.1,286046997.9,N
1541051475.9,286046994.2,N
1541051495.7,286046994.5,N
1541051515.5,286046996.2,N
1541051535.4,286046997.6,N
1541051555.2,286046997.0,N
1541051575.0,286046998.2,N
1541051575.9,286046998.2,N
1541051595.8,286047004.4,N
1541051615.6,286047001.6,N
1541051635.5,286047003.2,N
1541051655.3,286047005.2,N
1541051675.1,286047005.8,N
1541051695.9,286047006.0,N
1541051715.7,286047003.2,N
1541051735.5,286047003.5,N
1541051755.4,286047001.8,N
1541051775.2,286047000.1,N
1541051795.0,286046998.8,N
1541051795.9,286046998.8,N
1541051815.8,286046997.0,N
1541051835.6,286046997.6,N
1541051855.5,286046995.3,N
1541051875.3,286046995.6,N
1541051895.1,286046994.0,N
1541051915.9,286046995.7,N
1541051935.7,286046997.6,N
1541051955.5,286046997.3,N
1541051975.4,286047001.1,N
1541051995.2,286047001.6,N
